This is the latest recevied weather packets stored in our database for station/object UA1CAS-13. If no packets are shown the sender has not sent any weather packets the latest 10 day(s).
| Time | Temp. | Humidity | Pressure | Rain* | Wind** | Luminosity | Snow |
|---|---|---|---|---|---|---|---|
| 1777704908 | 20.56° C | 48% | 1009 hPa | - | - | - | - |
| 1777704007 | 20° C | 50% | 1009 hPa | - | - | - | - |
| 1777703106 | 18.89° C | 50% | 1009 hPa | - | - | - | - |
| 1777702204 | 18.33° C | 52% | 1009 hPa | - | - | - | - |
| 1777701303 | 17.78° C | 55% | 1009 hPa | - | - | - | - |
| 1777700402 | 16.11° C | 58% | 1009 hPa | - | - | - | - |
| 1777699501 | 15.56° C | 59% | 1009 hPa | - | - | - | - |
| 1777698600 | 15° C | 62% | 1009 hPa | - | - | - | - |
| 1777697699 | 14.44° C | 67% | 1010 hPa | - | - | - | - |
| 1777696798 | 12.78° C | 70% | 1010 hPa | - | - | - | - |
| 1777695896 | 12.22° C | 71% | 1010 hPa | - | - | - | - |
| 1777694995 | 11.67° C | 74% | 1010 hPa | - | - | - | - |
| 1777694094 | 11.11° C | 76% | 1010 hPa | - | - | - | - |
| 1777693193 | 11.11° C | 77% | 1010 hPa | - | - | - | - |
| 1777692292 | 10.56° C | 81% | 1010 hPa | - | - | - | - |
| 1777691391 | 10° C | 86% | 1010 hPa | - | - | - | - |
| 1777690490 | 8.33° C | 87% | 1010 hPa | - | - | - | - |
| 1777689589 | 8.33° C | 88% | 1010 hPa | - | - | - | - |
| 1777688688 | 8.33° C | 88% | 1010 hPa | - | - | - | - |
| 1777687787 | 8.33° C | 87% | 1010 hPa | - | - | - | - |
| 1777686886 | 8.33° C | 87% | 1011 hPa | - | - | - | - |
| 1777685985 | 8.89° C | 86% | 1011 hPa | - | - | - | - |
| 1777685084 | 8.89° C | 85% | 1011 hPa | - | - | - | - |
| 1777684182 | 8.89° C | 84% | 1011 hPa | - | - | - | - |
| 1777683281 | 8.89° C | 84% | 1011 hPa | - | - | - | - |
* Rain since midnight (hover to see other rain measurements)
** Current wind speed in m/s (hover to see current wind gust speed)